This demonstration page uses our WeatherBlox Daily Observations layout. Learn more.

Left ArrowRight Arrow

39.08367, -84.50855

Hourly Observations for March 10, 2016

Temp ( °F °C ) Dew Point ( °F °C ) Humidity (%) Winds ( mph kmh ) Pressure ( in mb ) Visibility ( mi km ) Precip ( " mm )
12:09 am 00:09 Cloudy with Fog 54 12.2 54 12.2 100 100 N N/A 30.06 1018 0.25 0.402335 N/A
12:34 am 00:34 Cloudy with Fog 54 12 54 12 100 100 N N/A 30.06 1018 0.5 0.80467 N/A
12:48 am 00:48 Cloudy with Fog 54 12 54 12 100 100 N N/A 30.06 1018 0.25 0.402335 N/A
12:53 am 00:53 Cloudy with Fog 54 12.2 54 12.2 100 100 N N/A 30.05 1018 0.25 0.402335 N/A
1:53 am 01:53 Cloudy with Fog 53 11.7 53 11.7 100 100 N N/A 30.04 1017 0.25 0.402335 N/A
2:17 am 02:17 Cloudy with Fog 55 12.8 55 12.8 100 100 VRB 3 6 30.03 1017 0.5 0.80467 N/A
2:24 am 02:24 Cloudy with Light Rain 55 13 55 13 100 100 VRB 6 9 30.03 1017 2 3.21868 N/A
2:32 am 02:32 Cloudy with Light Rain 56 13.3 56 13.3 100 100 VRB 3 6 30.03 1017 3 4.82802 0.01 0.254
2:53 am 02:53 Cloudy with Mist and Fog 55 12.8 55 12.8 100 100 N N/A 30.02 1017 4 6.43736 0.01 0.254
3:04 am 03:04 Cloudy with Light Rain 55 13 55 13 100 100 N N/A 30.03 1017 2.5 4.02335 N/A
3:21 am 03:21 Cloudy with Light Rain 55 12.8 55 12.8 100 100 N N/A 30.03 1017 3 4.82802 0.01 0.254
3:53 am 03:53 Cloudy with Mist and Fog 55 12.8 55 12.8 100 100 N N/A 30.01 1016 4 6.43736 0.02 0.508
4:06 am 04:06 Cloudy with Mist and Fog 55 12.8 55 12.8 100 100 N N/A 30 1016 2 3.21868 N/A
4:24 am 04:24 Mostly Cloudy with Mist and Fog 54 12 54 12 100 100 N N/A 30 1016 0.75 1.207005 N/A
4:39 am 04:39 Mostly Cloudy with Light Rain 54 12.2 54 12.2 100 100 SW 3 6 30 1016 2 3.21868 N/A
4:53 am 04:53 Cloudy with Mist and Fog 54 12.2 54 12.2 100 100 WSW 5 7 30.01 1016 5 8.0467 N/A
5:53 am 05:53 Cloudy with Light Rain 56 13.3 56 13.3 100 100 S 5 7 30.02 1017 5 8.0467 0.02 0.508
6:53 am 06:53 Cloudy 56 13.3 56 13.3 100 100 SW 6 9 30.03 1017 8 12.87472 0.01 0.254
7:53 am 07:53 Cloudy 57 13.9 57 13.9 100 100 WSW 3 6 30.02 1017 8 12.87472 N/A
8:53 am 08:53 Cloudy with Mist and Fog 57 13.9 57 13.9 100 100 VRB 3 6 30.03 1017 5 8.0467 N/A
9:53 am 09:53 Cloudy 59 15 58 14.4 96 96 N N/A 30.03 1017 7 11.26538 N/A
10:53 am 10:53 Cloudy with Light Rain 61 16.1 59 15 93 93 SSW 8 13 30.03 1017 6 9.65604 N/A
11:53 am 11:53 Cloudy with Light Rain 62 16.7 59 15 90 90 SSW 9 15 30.01 1016 8 12.87472 0.02 0.508
12:53 pm 12:53 Mostly Cloudy 63 17.2 58 14.4 84 84 SW 7 11 29.97 1015 10 16.0934 N/A
1:53 pm 13:53 Cloudy with Light Rain 63 17.2 59 15 87 87 SW 6 9 30 1016 5 8.0467 0.01 0.254
2:18 pm 14:18 Cloudy with Rain 63 17.2 60 15.6 90 90 SW 9 15 29.97 1015 2.5 4.02335 0.02 0.508
2:35 pm 14:35 Cloudy with Light Rain 62 16.7 60 15.6 93 93 SW 10 17 29.97 1015 4 6.43736 0.05 1.27
2:53 pm 14:53 Cloudy with Light Rain 62 16.7 60 15.6 93 93 SW 12 19 29.99 1016 4 6.43736 0.07 1.778
3:53 pm 15:53 Cloudy 63 17.2 61 16.1 93 93 SSW 6 9 29.97 1015 10 16.0934 0.04 1.016
4:53 pm 16:53 Cloudy with Rain 61 16.1 60 15.6 97 97 WSW 7 11 29.98 1015 2 3.21868 0.06 1.524
5:08 pm 17:08 Cloudy with Rain 61 16 61 16 100 100 SW 7 11 29.97 1015 3 4.82802 N/A
5:53 pm 17:53 Cloudy with Rain 61 16.1 60 15.6 97 97 SSW 6 9 29.99 1016 4 6.43736 0.06 1.524
6:53 pm 18:53 Cloudy with Rain 60 15.6 60 15.6 100 100 SW 6 9 30.01 1016 4 6.43736 0.06 1.524
7:24 pm 19:24 Cloudy with Rain 61 16 61 16 100 100 W 3 6 30 1016 2.5 4.02335 N/A
7:26 pm 19:26 Cloudy with Heavy Rain 61 16 61 16 100 100 VRB 6 9 30 1016 3 4.82802 N/A
7:39 pm 19:39 Cloudy with Light Rain 59 15 58 14.4 96 96 N 14 22 30 1016 3 4.82802 0.1 2.54
7:50 pm 19:50 Cloudy with Light Rain 59 15 57 14 94 94 N 9 15 30 1016 8 12.87472 0.12 3.048
7:51 pm 19:51 Cloudy with Light Rain 59 15 57 14 94 94 N 10 17 30 1016 8 12.87472 N/A
8:16 pm 20:16 Cloudy with Light Rain 58 14.4 57 13.9 97 97 NNW 13 20 30.06 1018 10 16.0934 0.01 0.254
8:53 pm 20:53 Cloudy with Light Rain 56 13.3 54 12.2 93 93 N 10 17 30.06 1018 8 12.87472 0.04 1.016
9:53 pm 21:53 Cloudy with Light Rain 53 11.7 52 11.1 96 96 NNE 10 17 30.08 1019 4 6.43736 0.02 0.508
10:53 pm 22:53 Cloudy 53 11.7 51 10.6 93 93 N 7 11 30.1 1019 10 16.0934 N/A
11:51 pm 23:51 Cloudy 52 11 50 10 94 94 N 3 6 30.12 1020 10 16.0934 N/A
11:53 pm 23:53 Cloudy 52 11.1 50 10 93 93 N 3 6 30.12 1020 10 16.0934 N/A

Powered by AerisWeather